| time (UTC) | temp F | wind direction | speed MPH | gust MPH | rain 1hr in | rain 24hr in | rain mn in | humidity % | barometer mb |
| 20260510164040 | 55 | 301 | 3.0 | 4.0 | 0.00 | 0.00 | 0.00 | 71 | 1016.4 |
| 20260510163541 | 55 | 326 | 5.0 | 3.0 | 0.00 | 0.00 | 0.00 | 70 | 1016.4 |
| 20260510163042 | 54 | 323 | 4.0 | 3.0 | 0.00 | 0.00 | 0.00 | 72 | 1016.2 |
| 20260510162540 | 54 | 343 | 3.0 | 3.0 | 0.00 | 0.00 | 0.00 | 72 | 1016.2 |
| 20260510162041 | 54 | 309 | 5.0 | 5.0 | 0.00 | 0.00 | 0.00 | 71 | 1016.3 |
| 20260510161043 | 54 | 316 | 1.0 | 3.0 | 0.00 | 0.00 | 0.00 | 72 | 1015.8 |
| 20260510160544 | 54 | 316 | 4.0 | 3.0 | 0.00 | 0.00 | 0.00 | 71 | 1015.8 |
| 20260510160043 | 54 | 311 | 1.0 | 1.0 | 0.00 | 0.00 | 0.00 | 72 | 1015.8 |
| 20260510155544 | 54 | 297 | 0.0 | 0.0 | 0.00 | 0.00 | 0.00 | 73 | 1015.7 |
| 20260510155045 | 53 | 278 | 0.0 | 0.0 | 0.00 | 0.00 | 0.00 | 75 | 1015.8 |
| 20260510154546 | 53 | 311 | 1.0 | 2.0 | 0.00 | 0.00 | 0.00 | 76 | 1015.8 |
| 20260510154047 | 53 | 319 | 0.0 | 0.0 | 0.00 | 0.00 | 0.00 | 76 | 1015.7 |
| 20260510153545 | 53 | 300 | 1.0 | 0.0 | 0.00 | 0.00 | 0.00 | 76 | 1015.7 |
| 20260510153046 | 52 | 298 | 1.0 | 0.0 | 0.00 | 0.00 | 0.00 | 75 | 1015.7 |
| 20260510152547 | 52 | 316 | 1.0 | 1.0 | 0.00 | 0.00 | 0.00 | 76 | 1015.7 |
| 20260510152048 | 52 | 285 | 1.0 | 0.0 | 0.00 | 0.00 | 0.00 | 76 | 1015.7 |
| 20260510150049 | 50 | 287 | 0.0 | 0.0 | 0.00 | 0.00 | 0.00 | 80 | 1015.8 |
| 20260510145550 | 49 | 319 | 2.0 | 2.0 | 0.00 | 0.00 | 0.00 | 81 | 1015.8 |
| 20260510145051 | 49 | 298 | 0.0 | 0.0 | 0.00 | 0.00 | 0.00 | 81 | 1015.7 |
| 20260510144051 | 48 | 288 | 0.0 | 0.0 | 0.00 | 0.00 | 0.00 | 81 | 1015.8 |
| 20260510143552 | 48 | 308 | 0.0 | 0.0 | 0.00 | 0.00 | 0.00 | 81 | 1015.8 |
| 20260510143053 | 48 | 314 | 2.0 | 1.0 | 0.00 | 0.00 | 0.00 | 80 | 1015.8 |
| 20260510142554 | 48 | 315 | 2.0 | 2.0 | 0.00 | 0.00 | 0.00 | 82 | 1015.8 |
| 20260510142052 | 48 | 316 | 2.0 | 2.0 | 0.00 | 0.00 | 0.00 | 82 | 1015.7 |
| 20260510141553 | 47 | 323 | 2.0 | 1.0 | 0.00 | 0.00 | 0.00 | 83 | 1015.6 |
| 20260510141054 | 47 | 284 | 1.0 | 0.0 | 0.00 | 0.00 | 0.00 | 84 | 1015.4 |
| 20260510140555 | 46 | 259 | 0.0 | 0.0 | 0.00 | 0.00 | 0.00 | 84 | 1015.4 |
| 20260510140056 | 46 | 270 | 0.0 | 1.0 | 0.00 | 0.00 | 0.00 | 84 | 1015.6 |
| 20260510135554 | 46 | 264 | 0.0 | 0.0 | 0.00 | 0.00 | 0.00 | 84 | 1015.7 |
| 20260510135055 | 46 | 273 | 0.0 | 1.0 | 0.00 | 0.00 | 0.00 | 84 | 1015.7 |
| 20260510134556 | 46 | 253 | 1.0 | 0.0 | 0.00 | 0.00 | 0.00 | 84 | 1015.7 |
| 20260510134057 | 46 | 293 | 1.0 | 0.0 | 0.00 | 0.00 | 0.00 | 85 | 1015.7 |
| 20260510133558 | 45 | 297 | 1.0 | 0.0 | 0.00 | 0.00 | 0.00 | 85 | 1015.7 |
| 20260510133056 | 45 | 330 | 2.0 | 2.0 | 0.00 | 0.00 | 0.00 | 85 | 1015.6 |
| 20260510132557 | 45 | 295 | 0.0 | 0.0 | 0.00 | 0.00 | 0.00 | 85 | 1015.6 |
| 20260510132057 | 45 | 295 | 0.0 | 0.0 | 0.00 | 0.00 | 0.00 | 86 | 1015.6 |
| 20260510131558 | 44 | 255 | 0.0 | 0.0 | 0.00 | 0.00 | 0.00 | 86 | 1015.6 |
| 20260510131059 | 44 | 308 | 0.0 | 0.0 | 0.00 | 0.00 | 0.00 | 87 | 1015.6 |
| 20260510130558 | 44 | 308 | 0.0 | 0.0 | 0.00 | 0.00 | 0.00 | 88 | 1015.6 |
| 20260510130058 | 43 | 308 | 0.0 | 0.0 | 0.00 | 0.00 | 0.00 | 88 | 1015.7 |
| 20260510125559 | 43 | 308 | 0.0 | 0.0 | 0.00 | 0.00 | 0.00 | 90 | 1015.4 |
| 20260510125100 | 43 | 308 | 0.0 | 0.0 | 0.00 | 0.00 | 0.00 | 89 | 1015.6 |
| 20260510124601 | 42 | 308 | 0.0 | 0.0 | 0.00 | 0.00 | 0.00 | 90 | 1015.7 |
| 20260510124059 | 42 | 308 | 0.0 | 0.0 | 0.00 | 0.00 | 0.00 | 90 | 1015.6 |
| 20260510123101 | 42 | 308 | 0.0 | 0.0 | 0.00 | 0.00 | 0.00 | 90 | 1015.6 |
| 20260510122602 | 41 | 308 | 0.0 | 0.0 | 0.00 | 0.00 | 0.00 | 90 | 1015.7 |
| 20260510122103 | 41 | 308 | 0.0 | 0.0 | 0.00 | 0.00 | 0.00 | 91 | 1015.7 |
| 20260510121601 | 41 | 308 | 0.0 | 0.0 | 0.00 | 0.00 | 0.00 | 91 | 1015.8 |
| 20260510121102 | 41 | 308 | 0.0 | 0.0 | 0.00 | 0.00 | 0.00 | 91 | 1015.8 |
| 20260510120603 | 41 | 308 | 0.0 | 0.0 | 0.00 | 0.00 | 0.00 | 90 | 1015.7 |
| 20260510120104 | 40 | 308 | 0.0 | 0.0 | 0.00 | 0.00 | 0.00 | 89 | 1015.7 |
| 20260510115605 | 41 | 308 | 0.0 | 0.0 | 0.00 | 0.00 | 0.00 | 89 | 1015.7 |
| 20260510115103 | 41 | 308 | 0.0 | 0.0 | 0.00 | 0.00 | 0.00 | 88 | 1015.7 |
| 20260510114604 | 41 | 308 | 0.0 | 0.0 | 0.00 | 0.00 | 0.00 | 86 | 1015.8 |
| 20260510114105 | 42 | 308 | 0.0 | 0.0 | 0.00 | 0.00 | 0.00 | 86 | 1015.8 |
| 20260510113606 | 42 | 308 | 0.0 | 0.0 | 0.00 | 0.00 | 0.00 | 85 | 1015.7 |
| 20260510113107 | 42 | 308 | 0.0 | 0.0 | 0.00 | 0.00 | 0.00 | 85 | 1015.7 |
| 20260510112605 | 43 | 308 | 0.0 | 0.0 | 0.00 | 0.00 | 0.00 | 87 | 1015.7 |
| 20260510112106 | 43 | 308 | 0.0 | 0.0 | 0.00 | 0.00 | 0.00 | 88 | 1015.7 |
| 20260510111607 | 43 | 308 | 0.0 | 0.0 | 0.00 | 0.00 | 0.00 | 87 | 1015.7 |
| 20260510111108 | 43 | 308 | 0.0 | 0.0 | 0.00 | 0.00 | 0.00 | 87 | 1015.7 |
| 20260510110609 | 43 | 308 | 0.0 | 0.0 | 0.00 | 0.00 | 0.00 | 88 | 1015.7 |
| 20260510110107 | 42 | 308 | 0.0 | 0.0 | 0.00 | 0.00 | 0.00 | 88 | 1015.8 |
| 20260510105608 | 42 | 308 | 0.0 | 0.0 | 0.00 | 0.00 | 0.00 | 89 | 1015.8 |
| 20260510105109 | 42 | 308 | 0.0 | 0.0 | 0.00 | 0.00 | 0.00 | 90 | 1015.8 |
| 20260510104610 | 42 | 308 | 0.0 | 0.0 | 0.00 | 0.00 | 0.00 | 89 | 1015.9 |
| 20260510104111 | 41 | 308 | 0.0 | 0.0 | 0.00 | 0.00 | 0.00 | 90 | 1015.9 |
| 20260510103609 | 41 | 308 | 0.0 | 0.0 | 0.00 | 0.00 | 0.00 | 91 | 1015.9 |
| 20260510103110 | 40 | 308 | 0.0 | 0.0 | 0.00 | 0.00 | 0.00 | 90 | 1015.9 |
| 20260510102612 | 40 | 308 | 0.0 | 0.0 | 0.00 | 0.00 | 0.00 | 89 | 1016.0 |
| 20260510102112 | 40 | 308 | 0.0 | 0.0 | 0.00 | 0.00 | 0.00 | 90 | 1015.9 |
| 20260510101613 | 40 | 308 | 0.0 | 0.0 | 0.00 | 0.00 | 0.00 | 88 | 1016.0 |
| 20260510101111 | 40 | 308 | 0.0 | 0.0 | 0.00 | 0.00 | 0.00 | 88 | 1015.9 |
| 20260510100613 | 40 | 308 | 0.0 | 0.0 | 0.00 | 0.00 | 0.00 | 87 | 1015.9 |
| 20260510100114 | 40 | 308 | 0.0 | 0.0 | 0.00 | 0.00 | 0.00 | 87 | 1015.9 |
| 20260510095614 | 40 | 308 | 0.0 | 0.0 | 0.00 | 0.00 | 0.00 | 88 | 1015.9 |
| 20260510095116 | 40 | 308 | 0.0 | 0.0 | 0.00 | 0.00 | 0.00 | 88 | 1015.9 |
| 20260510094614 | 40 | 308 | 0.0 | 0.0 | 0.00 | 0.00 | 0.00 | 88 | 1015.9 |
| 20260510094115 | 40 | 308 | 0.0 | 0.0 | 0.00 | 0.00 | 0.00 | 89 | 1016.0 |
| 20260510093616 | 40 | 308 | 0.0 | 0.0 | 0.00 | 0.00 | 0.00 | 88 | 1016.2 |
| 20260510093117 | 40 | 308 | 0.0 | 0.0 | 0.00 | 0.00 | 0.00 | 89 | 1016.3 |
| 20260510092618 | 40 | 308 | 0.0 | 0.0 | 0.00 | 0.00 | 0.00 | 88 | 1016.5 |
| 20260510092116 | 40 | 308 | 0.0 | 0.0 | 0.00 | 0.00 | 0.00 | 88 | 1016.5 |
| 20260510091617 | 39 | 308 | 0.0 | 0.0 | 0.00 | 0.00 | 0.00 | 89 | 1016.5 |
| 20260510091118 | 39 | 308 | 0.0 | 0.0 | 0.00 | 0.00 | 0.00 | 87 | 1016.5 |
| 20260510090619 | 40 | 308 | 0.0 | 0.0 | 0.00 | 0.00 | 0.00 | 86 | 1016.6 |
| 20260510090120 | 40 | 308 | 0.0 | 0.0 | 0.00 | 0.00 | 0.00 | 85 | 1016.6 |
| 20260510085619 | 40 | 308 | 0.0 | 0.0 | 0.00 | 0.00 | 0.00 | 85 | 1016.6 |
| 20260510085119 | 40 | 308 | 0.0 | 0.0 | 0.00 | 0.00 | 0.00 | 87 | 1016.7 |
| 20260510084620 | 40 | 308 | 0.0 | 0.0 | 0.00 | 0.00 | 0.00 | 84 | 1016.7 |
| 20260510084121 | 40 | 308 | 0.0 | 0.0 | 0.00 | 0.00 | 0.00 | 84 | 1016.6 |
| 20260510083622 | 40 | 308 | 0.0 | 0.0 | 0.00 | 0.00 | 0.00 | 84 | 1016.7 |
| 20260510082122 | 41 | 308 | 0.0 | 0.0 | 0.00 | 0.00 | 0.00 | 84 | 1016.9 |
| 20260510081623 | 41 | 308 | 0.0 | 0.0 | 0.00 | 0.00 | 0.00 | 83 | 1017.0 |
| 20260510080623 | 41 | 308 | 0.0 | 0.0 | 0.00 | 0.00 | 0.00 | 82 | 1016.9 |
| 20260510080124 | 41 | 308 | 0.0 | 0.0 | 0.00 | 0.00 | 0.00 | 82 | 1017.0 |
| 20260510075625 | 41 | 308 | 0.0 | 0.0 | 0.00 | 0.00 | 0.00 | 82 | 1016.9 |
| 20260510075125 | 41 | 308 | 0.0 | 0.0 | 0.00 | 0.00 | 0.00 | 82 | 1017.0 |
| 20260510074627 | 41 | 308 | 0.0 | 0.0 | 0.00 | 0.00 | 0.00 | 82 | 1017.0 |
| 20260510073626 | 42 | 308 | 0.0 | 0.0 | 0.00 | 0.00 | 0.00 | 83 | 1017.1 |
| 20260510073127 | 42 | 308 | 0.0 | 0.0 | 0.00 | 0.00 | 0.00 | 82 | 1017.2 |
| 20260510072628 | 42 | 308 | 0.0 | 0.0 | 0.00 | 0.00 | 0.00 | 82 | 1017.2 |
| 20260510072129 | 42 | 308 | 0.0 | 0.0 | 0.00 | 0.00 | 0.00 | 82 | 1017.2 |
| 20260510071627 | 42 | 308 | 0.0 | 0.0 | 0.00 | 0.00 | 0.00 | 83 | 1017.2 |
| 20260510071128 | 42 | 308 | 0.0 | 0.0 | 0.00 | 0.00 | 0.00 | 83 | 1017.2 |
| 20260510070629 | 43 | 308 | 0.0 | 0.0 | 0.00 | 0.00 | 0.00 | 81 | 1017.2 |
| 20260510065632 | 43 | 308 | 0.0 | 0.0 | 0.00 | 0.00 | 0.00 | 81 | 1017.2 |
| 20260510065130 | 43 | 308 | 0.0 | 0.0 | 0.00 | 0.00 | 0.00 | 83 | 1017.1 |
| 20260510064631 | 43 | 308 | 0.0 | 0.0 | 0.00 | 0.00 | 0.00 | 80 | 1017.2 |
| 20260510064132 | 43 | 308 | 0.0 | 0.0 | 0.00 | 0.00 | 0.00 | 80 | 1017.3 |
| 20260510063633 | 43 | 308 | 0.0 | 0.0 | 0.00 | 0.00 | 0.00 | 81 | 1017.3 |
| 20260510063134 | 43 | 308 | 0.0 | 0.0 | 0.00 | 0.00 | 0.00 | 79 | 1017.3 |
| 20260510062632 | 43 | 308 | 0.0 | 0.0 | 0.00 | 0.00 | 0.00 | 78 | 1017.5 |
| 20260510062133 | 43 | 308 | 0.0 | 0.0 | 0.00 | 0.00 | 0.00 | 78 | 1017.5 |
| 20260510061634 | 43 | 308 | 0.0 | 0.0 | 0.00 | 0.00 | 0.00 | 77 | 1017.5 |
| 20260510061136 | 44 | 308 | 0.0 | 0.0 | 0.00 | 0.00 | 0.00 | 76 | 1017.6 |
| 20260510060637 | 44 | 308 | 0.0 | 0.0 | 0.00 | 0.00 | 0.00 | 75 | 1017.6 |
| 20260510060135 | 44 | 308 | 0.0 | 0.0 | 0.00 | 0.00 | 0.00 | 75 | 1017.6 |
| 20260510055636 | 45 | 308 | 0.0 | 0.0 | 0.00 | 0.00 | 0.00 | 75 | 1017.6 |
| 20260510055137 | 45 | 308 | 0.0 | 0.0 | 0.00 | 0.00 | 0.00 | 75 | 1017.6 |
| 20260510054139 | 45 | 308 | 0.0 | 0.0 | 0.00 | 0.00 | 0.00 | 75 | 1017.7 |
| 20260510053139 | 45 | 308 | 0.0 | 0.0 | 0.00 | 0.00 | 0.00 | 73 | 1017.8 |
| 20260510052640 | 46 | 308 | 0.0 | 0.0 | 0.00 | 0.00 | 0.00 | 74 | 1017.9 |
| 20260510052141 | 46 | 308 | 0.0 | 0.0 | 0.00 | 0.00 | 0.00 | 72 | 1017.8 |
| 20260510051642 | 46 | 308 | 0.0 | 0.0 | 0.00 | 0.00 | 0.00 | 71 | 1017.9 |
| 20260510051140 | 47 | 308 | 0.0 | 0.0 | 0.00 | 0.00 | 0.00 | 69 | 1017.9 |
| 20260510050641 | 47 | 308 | 0.0 | 0.0 | 0.00 | 0.00 | 0.00 | 68 | 1017.9 |
| 20260510050143 | 47 | 308 | 0.0 | 0.0 | 0.00 | 0.00 | 0.00 | 68 | 1017.9 |
| 20260510045145 | 48 | 308 | 0.0 | 0.0 | 0.00 | 0.00 | 0.00 | 67 | 1018.1 |
| 20260510044643 | 49 | 308 | 0.0 | 0.0 | 0.00 | 0.00 | 0.00 | 65 | 1018.2 |
| 20260510044144 | 49 | 308 | 0.0 | 0.0 | 0.00 | 0.00 | 0.00 | 65 | 1018.2 |
| 20260510043645 | 50 | 308 | 0.0 | 0.0 | 0.00 | 0.00 | 0.00 | 64 | 1018.2 |
| 20260510043147 | 50 | 308 | 0.0 | 0.0 | 0.00 | 0.00 | 0.00 | 63 | 1018.2 |
| 20260510042648 | 51 | 308 | 0.0 | 0.0 | 0.00 | 0.00 | 0.00 | 62 | 1018.1 |
| 20260510042146 | 51 | 308 | 0.0 | 0.0 | 0.00 | 0.00 | 0.00 | 60 | 1018.1 |
| 20260510041148 | 52 | 308 | 0.0 | 0.0 | 0.00 | 0.00 | 0.00 | 58 | 1017.9 |
| 20260510040650 | 53 | 308 | 0.0 | 0.0 | 0.00 | 0.00 | 0.00 | 57 | 1018.1 |
| 20260510035649 | 54 | 308 | 0.0 | 0.0 | 0.00 | 0.00 | 0.00 | 54 | 1017.9 |
| 20260510035150 | 55 | 308 | 0.0 | 0.0 | 0.00 | 0.00 | 0.00 | 53 | 1017.8 |
| 20260510034652 | 55 | 308 | 0.0 | 0.0 | 0.00 | 0.00 | 0.00 | 53 | 1017.8 |
| 20260510034153 | 56 | 308 | 0.0 | 0.0 | 0.00 | 0.00 | 0.00 | 51 | 1017.9 |
| 20260510033654 | 57 | 308 | 0.0 | 0.0 | 0.00 | 0.00 | 0.00 | 50 | 1017.8 |
| 20260510032653 | 58 | 308 | 0.0 | 0.0 | 0.00 | 0.00 | 0.00 | 48 | 1017.8 |
| 20260510031655 | 59 | 308 | 0.0 | 0.0 | 0.00 | 0.00 | 0.00 | 46 | 1017.8 |
| 20260510031157 | 60 | 308 | 0.0 | 0.0 | 0.00 | 0.00 | 0.00 | 44 | 1017.7 |
| 20260510030655 | 60 | 308 | 0.0 | 0.0 | 0.00 | 0.00 | 0.00 | 44 | 1017.8 |
| 20260510030156 | 61 | 308 | 0.0 | 0.0 | 0.00 | 0.00 | 0.00 | 43 | 1017.7 |
| 20260510025657 | 61 | 308 | 0.0 | 0.0 | 0.00 | 0.00 | 0.00 | 42 | 1017.7 |
| 20260510025158 | 62 | 308 | 0.0 | 0.0 | 0.00 | 0.00 | 0.00 | 41 | 1017.7 |
| 20260510024700 | 62 | 308 | 0.0 | 0.0 | 0.00 | 0.00 | 0.00 | 39 | 1017.8 |
| 20260510024158 | 62 | 308 | 0.0 | 0.0 | 0.00 | 0.00 | 0.00 | 39 | 1017.7 |
| 20260510023659 | 62 | 308 | 0.0 | 0.0 | 0.00 | 0.00 | 0.00 | 39 | 1017.8 |
| 20260510023200 | 63 | 308 | 0.0 | 0.0 | 0.00 | 0.00 | 0.00 | 38 | 1017.8 |
| 20260510022701 | 63 | 314 | 0.0 | 0.0 | 0.00 | 0.00 | 0.00 | 38 | 1017.8 |
| 20260510022202 | 64 | 301 | 1.0 | 5.0 | 0.00 | 0.00 | 0.00 | 37 | 1017.8 |
| 20260510021701 | 64 | 305 | 2.0 | 1.0 | 0.00 | 0.00 | 0.00 | 37 | 1017.8 |
| 20260510021202 | 65 | 319 | 2.0 | 3.0 | 0.00 | 0.00 | 0.00 | 36 | 1017.9 |
| 20260510020703 | 65 | 316 | 3.0 | 4.0 | 0.00 | 0.00 | 0.00 | 34 | 1017.9 |
| 20260510020204 | 66 | 336 | 2.0 | 4.0 | 0.00 | 0.00 | 0.00 | 33 | 1017.9 |
| 20260510015705 | 66 | 314 | 2.0 | 1.0 | 0.00 | 0.00 | 0.00 | 33 | 1017.9 |
| 20260510015203 | 66 | 315 | 4.0 | 4.0 | 0.00 | 0.00 | 0.00 | 31 | 1018.1 |
| 20260510014705 | 66 | 323 | 2.0 | 2.0 | 0.00 | 0.00 | 0.00 | 30 | 1017.9 |
| 20260510014206 | 67 | 319 | 3.0 | 5.0 | 0.00 | 0.00 | 0.00 | 29 | 1017.9 |
| 20260510013707 | 67 | 311 | 3.0 | 5.0 | 0.00 | 0.00 | 0.00 | 27 | 1017.9 |
| 20260510013208 | 67 | 294 | 1.0 | 3.0 | 0.00 | 0.00 | 0.00 | 28 | 1018.1 |
| 20260510012207 | 68 | 301 | 0.0 | 1.0 | 0.00 | 0.00 | 0.00 | 29 | 1018.2 |
| 20260510011708 | 68 | 302 | 1.0 | 1.0 | 0.00 | 0.00 | 0.00 | 27 | 1018.1 |
| 20260510011209 | 68 | 326 | 4.0 | 3.0 | 0.00 | 0.00 | 0.00 | 26 | 1018.1 |
| 20260510010710 | 68 | 333 | 2.0 | 4.0 | 0.00 | 0.00 | 0.00 | 27 | 1018.1 |
| 20260510010209 | 68 | 270 | 5.0 | 7.0 | 0.00 | 0.00 | 0.00 | 27 | 1018.1 |
| 20260510005710 | 69 | 281 | 4.0 | 2.0 | 0.00 | 0.00 | 0.00 | 26 | 1018.2 |
| 20260510005211 | 69 | 250 | 2.0 | 1.0 | 0.00 | 0.00 | 0.00 | 25 | 1018.1 |
| 20260510004712 | 69 | 302 | 3.0 | 3.0 | 0.00 | 0.00 | 0.00 | 24 | 1018.2 |
| 20260510004213 | 69 | 183 | 4.0 | 0.0 | 0.00 | 0.00 | 0.00 | 24 | 1018.2 |
| 20260510003711 | 69 | 329 | 4.0 | 4.0 | 0.00 | 0.00 | 0.00 | 24 | 1018.1 |
| 20260510003213 | 69 | 323 | 3.0 | 4.0 | 0.00 | 0.00 | 0.00 | 24 | 1017.9 |
| 20260510002714 | 68 | 302 | 2.0 | 3.0 | 0.00 | 0.00 | 0.00 | 24 | 1017.9 |
| 20260510002215 | 68 | 73 | 3.0 | 1.0 | 0.00 | 0.00 | 0.00 | 25 | 1018.1 |
| 20260510001716 | 68 | 188 | 0.0 | 1.0 | 0.00 | 0.00 | 0.00 | 23 | 1018.1 |
| 20260510001214 | 68 | 207 | 2.0 | 0.0 | 0.00 | 0.00 | 0.00 | 22 | 1018.1 |
| 20260510000715 | 68 | 49 | 2.0 | 0.0 | 0.00 | 0.00 | 0.00 | 22 | 1018.1 |
| 20260510000218 | 68 | 322 | 1.0 | 4.0 | 0.00 | 0.00 | 0.00 | 25 | 1017.9 |
| 20260509235718 | 67 | 197 | 0.0 | 0.0 | 0.00 | 0.00 | 0.00 | 24 | 1017.9 |
| 20260509235219 | 67 | 124 | 1.0 | 0.0 | 0.00 | 0.00 | 0.00 | 23 | 1018.1 |
| 20260509234717 | 68 | 100 | 3.0 | 4.0 | 0.00 | 0.00 | 0.00 | 23 | 1018.1 |
| 20260509234218 | 68 | 149 | 2.0 | 0.0 | 0.00 | 0.00 | 0.00 | 23 | 1018.2 |
| 20260509233719 | 67 | 221 | 2.0 | 0.0 | 0.00 | 0.00 | 0.00 | 23 | 1018.2 |
| 20260509233220 | 67 | 70 | 1.0 | 3.0 | 0.00 | 0.00 | 0.00 | 22 | 1018.2 |
| 20260509232722 | 68 | 90 | 2.0 | 4.0 | 0.00 | 0.00 | 0.00 | 22 | 1018.3 |
| 20260509232220 | 68 | 91 | 3.0 | 4.0 | 0.00 | 0.00 | 0.00 | 23 | 1018.2 |
| 20260509231721 | 68 | 37 | 1.0 | 5.0 | 0.00 | 0.00 | 0.00 | 23 | 1018.3 |
| 20260509231222 | 67 | 31 | 2.0 | 3.0 | 0.00 | 0.00 | 0.00 | 24 | 1018.4 |
| 20260509230723 | 67 | 346 | 2.0 | 2.0 | 0.00 | 0.00 | 0.00 | 24 | 1018.4 |
| 20260509230224 | 68 | 80 | 1.0 | 0.0 | 0.00 | 0.00 | 0.00 | 23 | 1018.6 |
| 20260509225224 | 67 | 96 | 0.0 | 0.0 | 0.00 | 0.00 | 0.00 | 25 | 1018.6 |
| 20260509224725 | 67 | 28 | 2.0 | 2.0 | 0.00 | 0.00 | 0.00 | 25 | 1018.6 |
| 20260509224226 | 67 | 115 | 2.0 | 1.0 | 0.00 | 0.00 | 0.00 | 26 | 1018.8 |
| 20260509223727 | 67 | 124 | 4.0 | 2.0 | 0.00 | 0.00 | 0.00 | 26 | 1018.8 |
| 20260509223225 | 67 | 65 | 0.0 | 0.0 | 0.00 | 0.00 | 0.00 | 28 | 1018.9 |
| 20260509222227 | 67 | 86 | 3.0 | 2.0 | 0.00 | 0.00 | 0.00 | 24 | 1018.9 |
| 20260509221728 | 68 | 172 | 2.0 | 3.0 | 0.00 | 0.00 | 0.00 | 25 | 1019.0 |
| 20260509221230 | 68 | 113 | 3.0 | 2.0 | 0.00 | 0.00 | 0.00 | 26 | 1019.0 |
| 20260509220728 | 68 | 104 | 4.0 | 2.0 | 0.00 | 0.00 | 0.00 | 26 | 1019.1 |
| 20260509215730 | 68 | 200 | 0.0 | 4.0 | 0.00 | 0.00 | 0.00 | 27 | 1019.2 |
| 20260509214732 | 68 | 160 | 3.0 | 0.0 | 0.00 | 0.00 | 0.00 | 24 | 1019.2 |
| 20260509213733 | 67 | 193 | 2.0 | 4.0 | 0.00 | 0.00 | 0.00 | 28 | 1019.4 |
| 20260509212734 | 67 | 214 | 5.0 | 3.0 | 0.00 | 0.00 | 0.00 | 27 | 1019.4 |
| 20260509211733 | 67 | 224 | 3.0 | 1.0 | 0.00 | 0.00 | 0.00 | 28 | 1019.4 |
| 20260509210735 | 67 | 39 | 3.0 | 1.0 | 0.00 | 0.00 | 0.00 | 28 | 1019.4 |
| 20260509210236 | 67 | 66 | 3.0 | 2.0 | 0.00 | 0.00 | 0.00 | 28 | 1019.5 |
| 20260509205737 | 67 | 53 | 1.0 | 5.0 | 0.00 | 0.00 | 0.00 | 27 | 1019.4 |
| 20260509205236 | 67 | 131 | 2.0 | 5.0 | 0.00 | 0.00 | 0.00 | 28 | 1019.4 |
| 20260509204238 | 66 | 90 | 2.0 | 7.0 | 0.00 | 0.00 | 0.00 | 30 | 1019.6 |
| 20260509203739 | 66 | 160 | 2.0 | 4.0 | 0.00 | 0.00 | 0.00 | 28 | 1019.4 |
| 20260509202738 | 66 | 35 | 5.0 | 5.0 | 0.00 | 0.00 | 0.00 | 29 | 1019.5 |
| 20260509201740 | 65 | 215 | 5.0 | 1.0 | 0.00 | 0.00 | 0.00 | 29 | 1019.6 |
| 20260509201242 | 65 | 252 | 2.0 | 2.0 | 0.00 | 0.00 | 0.00 | 29 | 1019.6 |
| 20260509200241 | 65 | 31 | 3.0 | 1.0 | 0.00 | 0.00 | 0.00 | 27 | 1019.6 |
| 20260509195243 | 64 | 42 | 4.0 | 2.0 | 0.00 | 0.00 | 0.00 | 28 | 1019.6 |
| 20260509194744 | 64 | 242 | 2.0 | 4.0 | 0.00 | 0.00 | 0.00 | 28 | 1019.7 |
| 20260509193744 | 63 | 176 | 3.0 | 1.0 | 0.00 | 0.00 | 0.00 | 25 | 1019.7 |
| 20260509193245 | 63 | 23 | 2.0 | 2.0 | 0.00 | 0.00 | 0.00 | 27 | 1019.6 |
| 20260509192746 | 63 | 150 | 3.0 | 1.0 | 0.00 | 0.00 | 0.00 | 27 | 1019.8 |
| 20260509192247 | 63 | 108 | 4.0 | 1.0 | 0.00 | 0.00 | 0.00 | 27 | 1019.7 |
| 20260509191748 | 63 | 103 | 6.0 | 2.0 | 0.00 | 0.00 | 0.00 | 28 | 1019.7 |
| 20260509191246 | 63 | 70 | 2.0 | 3.0 | 0.00 | 0.00 | 0.00 | 29 | 1019.7 |
| 20260509190748 | 62 | 172 | 3.0 | 2.0 | 0.00 | 0.00 | 0.00 | 30 | 1019.7 |
| 20260509190249 | 62 | 114 | 5.0 | 3.0 | 0.00 | 0.00 | 0.00 | 29 | 1019.6 |
| 20260509185750 | 62 | 127 | 4.0 | 6.0 | 0.00 | 0.00 | 0.00 | 29 | 1019.8 |
| 20260509184749 | 62 | 24 | 2.0 | 4.0 | 0.00 | 0.00 | 0.00 | 29 | 1019.7 |
| 20260509184250 | 61 | 359 | 2.0 | 5.0 | 0.00 | 0.00 | 0.00 | 31 | 1019.7 |
| 20260509183751 | 61 | 177 | 1.0 | 4.0 | 0.00 | 0.00 | 0.00 | 29 | 1019.7 |
| 20260509183252 | 61 | 343 | 5.0 | 4.0 | 0.00 | 0.00 | 0.00 | 28 | 1019.7 |
| 20260509182753 | 61 | 120 | 1.0 | 1.0 | 0.00 | 0.00 | 0.00 | 29 | 1019.7 |
| 20260509182251 | 60 | 113 | 2.0 | 1.0 | 0.00 | 0.00 | 0.00 | 28 | 1019.7 |
| 20260509181254 | 60 | 94 | 4.0 | 5.0 | 0.00 | 0.00 | 0.00 | 28 | 1019.7 |
| 20260509180255 | 59 | 96 | 2.0 | 5.0 | 0.00 | 0.00 | 0.00 | 30 | 1019.5 |
| 20260509175754 | 59 | 135 | 5.0 | 5.0 | 0.00 | 0.00 | 0.00 | 27 | 1019.5 |
| 20260509174756 | 59 | 169 | 2.0 | 3.0 | 0.00 | 0.00 | 0.00 | 30 | 1019.4 |
| 20260509174257 | 58 | 160 | 3.0 | 1.0 | 0.00 | 0.00 | 0.00 | 33 | 1019.5 |
| 20260509173758 | 58 | 104 | 4.0 | 1.0 | 0.00 | 0.00 | 0.00 | 34 | 1019.4 |
| 20260509173256 | 57 | 101 | 3.0 | 0.0 | 0.00 | 0.00 | 0.00 | 33 | 1019.4 |
| 20260509172757 | 57 | 108 | 5.0 | 5.0 | 0.00 | 0.00 | 0.00 | 34 | 1019.4 |
| 20260509172257 | 57 | 198 | 5.0 | 5.0 | 0.00 | 0.00 | 0.00 | 32 | 1019.4 |
| 20260509171758 | 57 | 240 | 3.0 | 3.0 | 0.00 | 0.00 | 0.00 | 31 | 1019.2 |
| 20260509170757 | 57 | 152 | 2.0 | 3.0 | 0.00 | 0.00 | 0.00 | 35 | 1019.2 |
| 20260509170258 | 56 | 69 | 4.0 | 1.0 | 0.00 | 0.00 | 0.00 | 35 | 1019.1 |
| 20260509165759 | 56 | 105 | 5.0 | 5.0 | 0.00 | 0.00 | 0.00 | 39 | 1019.1 |
| 20260509165300 | 56 | 48 | 2.0 | 5.0 | 0.00 | 0.00 | 0.00 | 42 | 1019.1 |
| 20260509164800 | 56 | 86 | 4.0 | 7.0 | 0.00 | 0.00 | 0.00 | 41 | 1019.1 |
| 20260509164259 | 56 | 197 | 2.0 | 5.0 | 0.00 | 0.00 | 0.00 | 43 | 1019.1 |